Notices

What's New in latest Release from April 7th, 2021:

- Updated Glossary, including Speed of Maximum Gust, and Total Hourly Precipitation

- Updated national and regional climate services offices contacts and prices information

- Addition of station inventory lists for 1981-2010, 1971-2000, and 1961-1990 Normals.

If you haven't already, please take our survey and provide feedback about our website: https://eccc.sondage-survey.ca/f/LanguageSelection.aspx?s=442ca660-fcf1-47c0-95a9-59707d6fd709

Hourly Data Report for April 13, 2016

MIRAMICHI RCS
NEW BRUNSWICK

47°00'34.000" N
65°27'54.000" W
33.00 m
8100989
71744
ACQ

Download Data

Hourly Data (April 2016)
Hourly Data Report for April 13, 2016
TIME
LST
Temp Definition
°C
Dew Point Definition
°C
Rel Hum Definition
%
Precip. Amount Definition
mm

Wind Dir Definition
10's deg

Wind Spd Definition
km/h
Visibility Definition
km
Stn Press Definition
kPa
Hmdx Definition


Wind Chill Definition


Weather Definition


00:00 4.5 3.5 93 1.6 25 10   101.28     LegendNANA
01:00 3.9 2.8 93 0.2 24 17   101.41     LegendNANA
02:00 3.5 2.4 93 0.2 24 12   101.45     LegendNANA
03:00 3.0 1.8 92 0.0 23 14   101.54     LegendNANA
04:00 2.0 1.0 93 0.0 25 7   101.62     LegendNANA
05:00 0.9 0.0 94 0.0 25 5   101.74     LegendNANA
06:00 -0.1 -0.8 95 0.0 27 6   101.87   -2 LegendNANA
07:00 1.7 0.4 91 0.0 24 8   101.98     LegendNANA
08:00 3.5 0.4 80 0.0 26 9   102.07     LegendNANA
09:00 4.6 -0.2 71 0.0 31 13   102.12     LegendNANA
10:00 5.8 -1.0 62 0.0 29 15   102.17     LegendNANA
11:00 6.9 -1.7 54 0.0 29 17   102.19     LegendNANA
12:00 8.0 -1.7 50 0.0 27 17   102.15     LegendNANA
13:00 8.3 -2.5 47 0.0 28 14   102.13     LegendNANA
14:00 9.0 -3.1 42 0.0 28 10   102.12     LegendNANA
15:00 9.0 -4.3 39 0.0 29 14   102.09     LegendNANA
16:00 9.3 -3.6 40 0.0 29 7   102.09     LegendNANA
17:00 8.7 -4.0 40 0.0 32 9   102.12     LegendNANA
18:00 8.3 -5.2 38 0.0 32 9   102.17     LegendNANA
19:00 6.8 -5.2 42 0.0 34 5   102.24     LegendNANA
20:00 3.5 -3.0 62 0.0 8 6   102.33     LegendNANA
21:00 1.2 -3.1 74 0.0 17 2   102.40     LegendNANA
22:00 -0.6 -3.4 81 0.0 27 2   102.43   -1 LegendNANA
23:00 -0.7 -3.3 82 0.0 28 6   102.47   -3 LegendNANA

Notes on Data Quality.

Legend

  • E = Estimated
  • M = Missing
  • NA = Not Available*
  • [empty] = Indicates an unobserved value
Date modified: